Voltar ao catálogo

METEOR 2-8 DEB

AtivoPO
NORAD 36857·DEBRIS·🇷🇺 Russia

Lançado Mar 25, 1982 de Plesetsk Cosmodrome

Loading…

Próximas Passagens (próximas 24 horas)

TLE

AtualizadoSource: Space-Track

Época: Sep 13, 2026, 09:40 UTC

1 36857U 82025AU  26256.40280529  .00001609  00000-0  69489-3 0  9992
2 36857  82.5374 136.8911 0036182 197.4378 162.5565 14.23616794124705

Acompanhe METEOR 2-8 DEB em tempo real com AllMySat

Download on the App Store